Time,TemperatureF,DewpointF,PressureIn,WindDirection,WindDirectionDegrees,WindSpeedMPH,WindSpeedGustMPH,Humidity,HourlyPrecipIn,Conditions,Clouds,dailyrainin,SolarRadiationWatts/m^2,SoftwareType,DateUTC
2013-10-02 00:02:00,73.6,67.4,29.82,WSW,252,4.0,6.0,81,0.00,,,0.00,0,Wunderground v.1.15,2013-10-01 22:02:00,
2013-10-02 00:08:00,73.0,67.2,29.82,WSW,252,5.0,7.0,82,0.00,,,0.00,0,Wunderground v.1.15,2013-10-01 22:08:00,
2013-10-02 00:14:00,72.8,66.6,29.83,WSW,252,3.0,5.0,81,0.00,,,0.00,0,Wunderground v.1.15,2013-10-01 22:14:00,
2013-10-02 00:20:00,72.6,66.4,29.83,WSW,252,1.0,1.0,81,0.00,,,0.00,0,Wunderground v.1.15,2013-10-01 22:20:00,
2013-10-02 00:26:00,72.4,66.6,29.83,WSW,252,2.0,5.0,82,0.00,,,0.00,0,Wunderground v.1.15,2013-10-01 22:26:00,
2013-10-02 00:32:00,72.5,67.0,29.82,WSW,252,5.0,7.0,83,0.00,,,0.00,0,Wunderground v.1.15,2013-10-01 22:32:00,
2013-10-02 00:38:00,72.5,67.0,29.82,WSW,252,6.0,7.0,83,0.00,,,0.00,0,Wunderground v.1.15,2013-10-01 22:38:00,
2013-10-02 00:46:00,72.6,67.5,29.83,WSW,252,5.0,7.0,84,0.00,,,0.00,0,Wunderground v.1.15,2013-10-01 22:46:00,
2013-10-02 00:52:00,72.8,67.3,29.83,WSW,250,5.0,7.0,83,0.00,,,0.00,0,Wunderground v.1.15,2013-10-01 22:52:00,
2013-10-02 00:58:00,72.9,67.4,29.82,WSW,240,6.0,7.0,83,0.00,,,0.00,0,Wunderground v.1.15,2013-10-01 22:58:00,
2013-10-02 01:06:00,72.8,67.0,29.82,WSW,239,7.0,9.0,82,0.00,,,0.00,0,Wunderground v.1.15,2013-10-01 23:06:00,
2013-10-02 01:12:00,72.8,66.6,29.83,WSW,240,6.0,7.0,81,0.00,,,0.00,0,Wunderground v.1.15,2013-10-01 23:12:00,
2013-10-02 01:18:00,72.9,66.7,29.82,WSW,240,4.0,7.0,81,0.00,,,0.00,0,Wunderground v.1.15,2013-10-01 23:18:00,
2013-10-02 01:26:00,72.9,66.7,29.82,WSW,240,3.0,4.0,81,0.00,,,0.00,0,Wunderground v.1.15,2013-10-01 23:26:00,
2013-10-02 01:32:00,73.0,66.5,29.82,WSW,240,3.0,4.0,80,0.00,,,0.00,0,Wunderground v.1.15,2013-10-01 23:32:00,
2013-10-02 01:38:00,73.1,66.6,29.82,WSW,240,3.0,4.0,80,0.00,,,0.00,0,Wunderground v.1.15,2013-10-01 23:38:00,
2013-10-02 01:44:00,73.0,66.1,29.82,WSW,240,3.0,4.0,79,0.00,,,0.00,0,Wunderground v.1.15,2013-10-01 23:44:00,
2013-10-02 01:46:00,73.0,66.1,29.82,WSW,240,3.0,4.0,79,0.00,,,0.00,0,Wunderground v.1.15,2013-10-01 23:46:00,
2013-10-02 01:52:00,72.9,66.0,29.82,WSW,240,0.0,1.0,79,0.00,,,0.00,0,Wunderground v.1.15,2013-10-01 23:52:00,
2013-10-02 01:58:00,72.8,65.9,29.82,WSW,240,0.0,1.0,79,0.00,,,0.00,0,Wunderground v.1.15,2013-10-01 23:58:00,
2013-10-02 02:06:00,72.4,65.5,29.82,WSW,240,0.0,0.0,79,0.00,,,0.00,0,Wunderground v.1.15,2013-10-02 00:06:00,
2013-10-02 02:12:00,72.2,65.3,29.83,WSW,240,0.0,1.0,79,0.00,,,0.00,0,Wunderground v.1.15,2013-10-02 00:12:00,
2013-10-02 02:18:00,72.4,65.9,29.83,WSW,240,1.0,1.0,80,0.00,,,0.00,0,Wunderground v.1.15,2013-10-02 00:18:00,
2013-10-02 02:24:00,72.6,66.1,29.83,WSW,240,1.0,3.0,80,0.00,,,0.00,0,Wunderground v.1.15,2013-10-02 00:24:00,
2013-10-02 02:30:00,72.7,66.5,29.82,WSW,240,2.0,2.0,81,0.00,,,0.00,0,Wunderground v.1.15,2013-10-02 00:30:00,
2013-10-02 02:36:00,72.5,66.0,29.82,WSW,240,1.0,2.0,80,0.00,,,0.00,0,Wunderground v.1.15,2013-10-02 00:36:00,
2013-10-02 02:42:00,72.0,65.5,29.82,WSW,240,0.0,0.0,80,0.00,,,0.00,0,Wunderground v.1.15,2013-10-02 00:42:00,
2013-10-02 02:48:00,72.0,65.8,29.82,WSW,240,0.0,1.0,81,0.00,,,0.00,0,Wunderground v.1.15,2013-10-02 00:48:00,
2013-10-02 02:54:00,71.9,66.1,29.82,WSW,240,2.0,2.0,82,0.00,,,0.00,0,Wunderground v.1.15,2013-10-02 00:54:00,
2013-10-02 02:56:00,71.8,66.4,29.82,WSW,240,3.0,3.0,83,0.00,,,0.00,0,Wunderground v.1.15,2013-10-02 00:56:00,
2013-10-02 03:02:00,71.5,66.1,29.82,WSW,240,3.0,5.0,83,0.00,,,0.00,0,Wunderground v.1.15,2013-10-02 01:02:00,
2013-10-02 03:08:00,71.2,65.8,29.82,WSW,240,2.0,5.0,83,0.00,,,0.00,0,Wunderground v.1.15,2013-10-02 01:08:00,
2013-10-02 03:16:00,71.2,65.8,29.82,WSW,240,3.0,5.0,83,0.00,,,0.00,0,Wunderground v.1.15,2013-10-02 01:16:00,
2013-10-02 03:22:00,71.3,65.9,29.82,WSW,240,4.0,5.0,83,0.00,,,0.00,0,Wunderground v.1.15,2013-10-02 01:22:00,
2013-10-02 03:28:00,71.2,65.4,29.82,WSW,240,4.0,5.0,82,0.00,,,0.00,0,Wunderground v.1.15,2013-10-02 01:28:00,
2013-10-02 03:34:00,70.8,64.7,29.82,WSW,240,4.0,4.0,81,0.00,,,0.00,0,Wunderground v.1.15,2013-10-02 01:34:00,
2013-10-02 03:40:00,70.8,64.7,29.81,WSW,240,4.0,4.0,81,0.00,,,0.00,0,Wunderground v.1.15,2013-10-02 01:40:00,
2013-10-02 03:46:00,71.3,64.4,29.82,WSW,240,3.0,4.0,79,0.00,,,0.00,0,Wunderground v.1.15,2013-10-02 01:46:00,
2013-10-02 03:52:00,71.8,64.6,29.81,WSW,240,2.0,2.0,78,0.00,,,0.00,0,Wunderground v.1.15,2013-10-02 01:52:00,
2013-10-02 03:58:00,72.0,64.4,29.82,WSW,240,2.0,5.0,77,0.00,,,0.00,0,Wunderground v.1.15,2013-10-02 01:58:00,
2013-10-02 04:06:00,71.8,64.2,29.81,WSW,240,5.0,6.0,77,0.00,,,0.00,0,Wunderground v.1.15,2013-10-02 02:06:00,
2013-10-02 04:12:00,71.8,64.6,29.81,WSW,240,5.0,5.0,78,0.00,,,0.00,0,Wunderground v.1.15,2013-10-02 02:12:00,
2013-10-02 04:18:00,71.6,64.0,29.81,WSW,240,5.0,7.0,77,0.00,,,0.00,0,Wunderground v.1.15,2013-10-02 02:18:00,
2013-10-02 04:26:00,71.1,64.3,29.81,WSW,240,4.0,5.0,79,0.00,,,0.00,0,Wunderground v.1.15,2013-10-02 02:26:00,
2013-10-02 04:32:00,70.8,64.3,29.81,WSW,240,3.0,4.0,80,0.00,,,0.00,0,Wunderground v.1.15,2013-10-02 02:32:00,
2013-10-02 04:38:00,70.7,64.2,29.81,WSW,240,3.0,4.0,80,0.00,,,0.00,0,Wunderground v.1.15,2013-10-02 02:38:00,
2013-10-02 04:46:00,71.4,64.5,29.80,WSW,240,3.0,5.0,79,0.00,,,0.00,0,Wunderground v.1.15,2013-10-02 02:46:00,
2013-10-02 04:52:00,71.4,63.8,29.80,WSW,240,3.0,3.0,77,0.00,,,0.00,0,Wunderground v.1.15,2013-10-02 02:52:00,
2013-10-02 04:58:00,71.5,64.3,29.80,WSW,240,4.0,7.0,78,0.00,,,0.00,0,Wunderground v.1.15,2013-10-02 02:58:00,
2013-10-02 05:06:00,71.7,64.5,29.80,WSW,240,5.0,7.0,78,0.00,,,0.00,0,Wunderground v.1.15,2013-10-02 03:06:00,
2013-10-02 05:12:00,72.0,64.8,29.80,WSW,240,5.0,6.0,78,0.00,,,0.00,0,Wunderground v.1.15,2013-10-02 03:12:00,
2013-10-02 05:18:00,71.8,64.6,29.80,WSW,240,4.0,6.0,78,0.00,,,0.00,0,Wunderground v.1.15,2013-10-02 03:18:00,
2013-10-02 05:26:00,71.2,64.4,29.80,WSW,240,5.0,5.0,79,0.00,,,0.00,0,Wunderground v.1.15,2013-10-02 03:26:00,
2013-10-02 05:32:00,70.9,64.1,29.80,WSW,240,4.0,5.0,79,0.00,,,0.00,0,Wunderground v.1.15,2013-10-02 03:32:00,
2013-10-02 05:38:00,70.8,64.0,29.80,WSW,240,3.0,5.0,79,0.00,,,0.00,0,Wunderground v.1.15,2013-10-02 03:38:00,
2013-10-02 05:46:00,70.8,63.6,29.80,WSW,240,5.0,7.0,78,0.00,,,0.00,0,Wunderground v.1.15,2013-10-02 03:46:00,
2013-10-02 05:52:00,71.3,63.0,29.80,WSW,240,6.0,7.0,75,0.00,,,0.00,0,Wunderground v.1.15,2013-10-02 03:52:00,
2013-10-02 05:58:00,71.7,63.0,29.80,WSW,254,6.0,7.0,74,0.00,,,0.00,0,Wunderground v.1.15,2013-10-02 03:58:00,
2013-10-02 06:02:00,71.7,62.6,29.80,WSW,254,4.0,5.0,73,0.00,,,0.00,0,Wunderground v.1.15,2013-10-02 04:02:00,
2013-10-02 06:06:00,71.5,62.4,29.81,WSW,254,4.0,5.0,73,0.00,,,0.00,0,Wunderground v.1.15,2013-10-02 04:06:00,
2013-10-02 06:08:00,71.3,62.2,29.80,WSW,254,4.0,5.0,73,0.00,,,0.00,0,Wunderground v.1.15,2013-10-02 04:08:00,
2013-10-02 06:10:00,71.2,62.5,29.80,WSW,254,4.0,4.0,74,0.00,,,0.00,0,Wunderground v.1.15,2013-10-02 04:10:00,
2013-10-02 06:16:00,70.8,62.9,29.81,WSW,254,3.0,5.0,76,0.00,,,0.00,0,Wunderground v.1.15,2013-10-02 04:16:00,
2013-10-02 06:18:00,70.5,62.6,29.81,WSW,253,3.0,5.0,76,0.00,,,0.00,0,Wunderground v.1.15,2013-10-02 04:18:00,
2013-10-02 06:26:00,69.6,61.7,29.81,WSW,253,3.0,6.0,76,0.00,,,0.00,0,Wunderground v.1.15,2013-10-02 04:26:00,
2013-10-02 06:30:00,69.8,61.9,29.81,WSW,254,3.0,6.0,76,0.00,,,0.00,0,Wunderground v.1.15,2013-10-02 04:30:00,
2013-10-02 06:36:00,70.3,62.4,29.81,WSW,254,5.0,6.0,76,0.00,,,0.00,0,Wunderground v.1.15,2013-10-02 04:36:00,
2013-10-02 06:42:00,70.5,62.2,29.81,WSW,254,5.0,6.0,75,0.00,,,0.00,0,Wunderground v.1.15,2013-10-02 04:42:00,
2013-10-02 06:48:00,70.4,62.1,29.81,WSW,254,2.0,6.0,75,0.00,,,0.00,0,Wunderground v.1.15,2013-10-02 04:48:00,
2013-10-02 06:56:00,70.4,63.2,29.81,WSW,254,2.0,5.0,78,0.00,,,0.00,0,Wunderground v.1.15,2013-10-02 04:56:00,
2013-10-02 07:02:00,70.5,64.0,29.81,WSW,256,4.0,6.0,80,0.00,,,0.00,0,Wunderground v.1.15,2013-10-02 05:02:00,
2013-10-02 07:08:00,70.7,64.6,29.81,WSW,255,5.0,6.0,81,0.00,,,0.00,0,Wunderground v.1.15,2013-10-02 05:08:00,
2013-10-02 07:16:00,70.7,64.9,29.82,WSW,255,3.0,5.0,82,0.00,,,0.00,0,Wunderground v.1.15,2013-10-02 05:16:00,
2013-10-02 07:22:00,70.6,65.2,29.82,WSW,255,1.0,2.0,83,0.00,,,0.00,0,Wunderground v.1.15,2013-10-02 05:22:00,
2013-10-02 07:28:00,70.6,65.5,29.82,WSW,255,0.0,2.0,84,0.00,,,0.00,0,Wunderground v.1.15,2013-10-02 05:28:00,
2013-10-02 07:36:00,70.7,66.0,29.82,WSW,254,0.0,0.0,85,0.00,,,0.00,0,Wunderground v.1.15,2013-10-02 05:36:00,
2013-10-02 07:42:00,70.7,66.0,29.82,WSW,254,1.0,3.0,85,0.00,,,0.00,0,Wunderground v.1.15,2013-10-02 05:42:00,
2013-10-02 07:48:00,70.8,66.4,29.82,WSW,253,3.0,7.0,86,0.00,,,0.00,0,Wunderground v.1.15,2013-10-02 05:48:00,
2013-10-02 07:56:00,71.0,67.3,29.82,WSW,251,6.0,7.0,88,0.00,,,0.00,7,Wunderground v.1.15,2013-10-02 05:56:00,
2013-10-02 08:02:00,70.8,67.1,29.82,WSW,253,5.0,6.0,88,0.00,,,0.00,12,Wunderground v.1.15,2013-10-02 06:02:00,
2013-10-02 08:08:00,70.7,67.0,29.82,WSW,256,4.0,6.0,88,0.00,,,0.00,14,Wunderground v.1.15,2013-10-02 06:08:00,
2013-10-02 08:16:00,70.8,67.1,29.82,WSW,257,3.0,7.0,88,0.00,,,0.00,16,Wunderground v.1.15,2013-10-02 06:16:00,
2013-10-02 08:22:00,70.9,67.5,29.83,WSW,257,4.0,4.0,89,0.00,,,0.00,18,Wunderground v.1.15,2013-10-02 06:22:00,
2013-10-02 08:28:00,70.9,67.5,29.83,WSW,257,4.0,5.0,89,0.00,,,0.00,21,Wunderground v.1.15,2013-10-02 06:28:00,
2013-10-02 08:36:00,70.8,67.4,29.83,WSW,257,5.0,6.0,89,0.00,,,0.00,72,Wunderground v.1.15,2013-10-02 06:36:00,
2013-10-02 08:42:00,70.7,67.3,29.83,WSW,257,5.0,6.0,89,0.00,,,0.00,54,Wunderground v.1.15,2013-10-02 06:42:00,
2013-10-02 08:48:00,70.6,66.9,29.83,WSW,257,4.0,6.0,88,0.00,,,0.00,39,Wunderground v.1.15,2013-10-02 06:48:00,
2013-10-02 08:56:00,71.1,67.4,29.83,WSW,257,4.0,5.0,88,0.00,,,0.00,167,Wunderground v.1.15,2013-10-02 06:56:00,
2013-10-02 09:02:00,71.7,68.0,29.83,WSW,257,5.0,6.0,88,0.00,,,0.00,127,Wunderground v.1.15,2013-10-02 07:02:00,
2013-10-02 09:08:00,72.2,68.4,29.83,WSW,256,4.0,6.0,88,0.00,,,0.00,200,Wunderground v.1.15,2013-10-02 07:08:00,
2013-10-02 09:16:00,72.6,68.8,29.84,WSW,257,4.0,6.0,88,0.00,,,0.00,230,Wunderground v.1.15,2013-10-02 07:16:00,
2013-10-02 09:22:00,72.9,68.8,29.84,WSW,256,3.0,4.0,87,0.00,,,0.00,250,Wunderground v.1.15,2013-10-02 07:22:00,
2013-10-02 09:28:00,73.3,69.2,29.84,WSW,256,3.0,4.0,87,0.00,,,0.00,265,Wunderground v.1.15,2013-10-02 07:28:00,
2013-10-02 09:36:00,74.6,70.5,29.84,WSW,248,4.0,4.0,87,0.00,,,0.00,301,Wunderground v.1.15,2013-10-02 07:36:00,
2013-10-02 09:42:00,75.2,70.7,29.84,WSW,248,3.0,4.0,86,0.00,,,0.00,137,Wunderground v.1.15,2013-10-02 07:42:00,
2013-10-02 09:48:00,75.6,71.1,29.84,SSW,210,3.0,4.0,86,0.00,,,0.00,236,Wunderground v.1.15,2013-10-02 07:48:00,
2013-10-02 09:56:00,76.2,71.4,29.85,SSW,213,3.0,3.0,85,0.00,,,0.00,316,Wunderground v.1.15,2013-10-02 07:56:00,
2013-10-02 10:02:00,76.5,71.3,29.85,SW,229,4.0,6.0,84,0.00,,,0.00,380,Wunderground v.1.15,2013-10-02 08:02:00,
2013-10-02 10:08:00,76.9,71.3,29.85,SW,230,5.0,7.0,83,0.00,,,0.00,394,Wunderground v.1.15,2013-10-02 08:08:00,
2013-10-02 10:14:00,77.1,71.2,29.85,SW,230,6.0,6.0,82,0.00,,,0.00,406,Wunderground v.1.15,2013-10-02 08:14:00,
2013-10-02 10:20:00,77.6,71.3,29.85,SW,227,5.0,5.0,81,0.00,,,0.00,422,Wunderground v.1.15,2013-10-02 08:20:00,
2013-10-02 10:26:00,77.8,71.1,29.85,WSW,237,5.0,7.0,80,0.00,,,0.00,438,Wunderground v.1.15,2013-10-02 08:26:00,
2013-10-02 10:32:00,78.1,70.7,29.85,WSW,238,6.0,9.0,78,0.00,,,0.00,454,Wunderground v.1.15,2013-10-02 08:32:00,
2013-10-02 10:38:00,78.5,71.1,29.85,WSW,244,6.0,9.0,78,0.00,,,0.00,469,Wunderground v.1.15,2013-10-02 08:38:00,
2013-10-02 10:46:00,79.1,70.9,29.85,SW,236,7.0,8.0,76,0.00,,,0.00,485,Wunderground v.1.15,2013-10-02 08:46:00,
2013-10-02 10:52:00,79.3,70.7,29.85,SW,234,6.0,7.0,75,0.00,,,0.00,501,Wunderground v.1.15,2013-10-02 08:52:00,
2013-10-02 10:58:00,79.9,71.3,29.85,SW,227,6.0,7.0,75,0.00,,,0.00,517,Wunderground v.1.15,2013-10-02 08:58:00,
2013-10-02 11:06:00,80.5,71.0,29.85,WSW,240,5.0,8.0,73,0.00,,,0.00,536,Wunderground v.1.15,2013-10-02 09:06:00,
2013-10-02 11:12:00,80.5,70.6,29.86,WSW,239,7.0,8.0,72,0.00,,,0.00,547,Wunderground v.1.15,2013-10-02 09:12:00,
2013-10-02 11:18:00,80.7,69.6,29.86,SW,231,7.0,10.0,69,0.00,,,0.00,563,Wunderground v.1.15,2013-10-02 09:18:00,
2013-10-02 11:24:00,80.9,68.9,29.86,SW,223,9.0,11.0,67,0.00,,,0.00,573,Wunderground v.1.15,2013-10-02 09:24:00,
2013-10-02 11:30:00,81.4,68.5,29.86,WSW,241,8.0,8.0,65,0.00,,,0.00,587,Wunderground v.1.15,2013-10-02 09:30:00,
2013-10-02 11:36:00,81.8,68.4,29.86,SW,228,7.0,8.0,64,0.00,,,0.00,599,Wunderground v.1.15,2013-10-02 09:36:00,
2013-10-02 11:42:00,81.6,67.8,29.86,WSW,237,9.0,10.0,63,0.00,,,0.00,610,Wunderground v.1.15,2013-10-02 09:42:00,
2013-10-02 11:48:00,81.8,68.4,29.86,SW,236,10.0,11.0,64,0.00,,,0.00,613,Wunderground v.1.15,2013-10-02 09:48:00,
2013-10-02 11:56:00,81.8,68.9,29.86,SW,234,9.0,10.0,65,0.00,,,0.00,626,Wunderground v.1.15,2013-10-02 09:56:00,
2013-10-02 12:02:00,81.8,68.4,29.86,SW,236,8.0,10.0,64,0.00,,,0.00,635,Wunderground v.1.15,2013-10-02 10:02:00,
2013-10-02 12:08:00,81.7,68.3,29.87,WSW,245,9.0,10.0,64,0.00,,,0.00,643,Wunderground v.1.15,2013-10-02 10:08:00,
2013-10-02 12:16:00,82.3,68.4,29.86,SW,233,8.0,10.0,63,0.00,,,0.00,654,Wunderground v.1.15,2013-10-02 10:16:00,
2013-10-02 12:22:00,82.5,68.6,29.86,WSW,241,8.0,9.0,63,0.00,,,0.00,659,Wunderground v.1.15,2013-10-02 10:22:00,
2013-10-02 12:28:00,82.7,67.4,29.86,WSW,248,10.0,11.0,60,0.00,,,0.00,670,Wunderground v.1.15,2013-10-02 10:28:00,
2013-10-02 12:36:00,83.0,66.7,29.86,WSW,245,11.0,13.0,58,0.00,,,0.00,677,Wunderground v.1.15,2013-10-02 10:36:00,
2013-10-02 12:42:00,83.5,67.7,29.86,SSW,212,10.0,10.0,59,0.00,,,0.00,684,Wunderground v.1.15,2013-10-02 10:42:00,
2013-10-02 12:48:00,84.1,67.2,29.86,WSW,253,8.0,12.0,57,0.00,,,0.00,689,Wunderground v.1.15,2013-10-02 10:48:00,
2013-10-02 12:56:00,84.4,68.0,29.86,WSW,248,8.0,9.0,58,0.00,,,0.00,693,Wunderground v.1.15,2013-10-02 10:56:00,
2013-10-02 13:02:00,84.6,67.7,29.86,WSW,246,9.0,11.0,57,0.00,,,0.00,698,Wunderground v.1.15,2013-10-02 11:02:00,
2013-10-02 13:08:00,84.5,67.6,29.86,WSW,249,11.0,11.0,57,0.00,,,0.00,698,Wunderground v.1.15,2013-10-02 11:08:00,
2013-10-02 13:14:00,84.4,67.5,29.86,WSW,249,10.0,13.0,57,0.00,,,0.00,700,Wunderground v.1.15,2013-10-02 11:14:00,
2013-10-02 13:20:00,84.4,67.0,29.86,WSW,240,11.0,11.0,56,0.00,,,0.00,705,Wunderground v.1.15,2013-10-02 11:20:00,
2013-10-02 13:26:00,84.9,67.5,29.86,WSW,239,11.0,12.0,56,0.00,,,0.00,707,Wunderground v.1.15,2013-10-02 11:26:00,
2013-10-02 13:32:00,85.1,66.6,29.85,WSW,252,10.0,15.0,54,0.00,,,0.00,710,Wunderground v.1.15,2013-10-02 11:32:00,
2013-10-02 13:38:00,85.3,66.8,29.85,WSW,238,11.0,15.0,54,0.00,,,0.00,705,Wunderground v.1.15,2013-10-02 11:38:00,
2013-10-02 13:46:00,85.9,66.8,29.85,WSW,253,10.0,13.0,53,0.00,,,0.00,707,Wunderground v.1.15,2013-10-02 11:46:00,
2013-10-02 13:52:00,85.4,66.3,29.85,WSW,237,11.0,13.0,53,0.00,,,0.00,705,Wunderground v.1.15,2013-10-02 11:52:00,
2013-10-02 13:58:00,85.8,65.6,29.85,WSW,237,11.0,13.0,51,0.00,,,0.00,705,Wunderground v.1.15,2013-10-02 11:58:00,
2013-10-02 14:04:00,85.8,66.1,29.85,SW,230,12.0,12.0,52,0.00,,,0.00,703,Wunderground v.1.15,2013-10-02 12:04:00,
2013-10-02 14:10:00,86.0,65.8,29.85,SW,215,11.0,13.0,51,0.00,,,0.00,701,Wunderground v.1.15,2013-10-02 12:10:00,
2013-10-02 14:16:00,86.0,65.2,29.85,WSW,252,12.0,15.0,50,0.00,,,0.00,691,Wunderground v.1.15,2013-10-02 12:16:00,
2013-10-02 14:22:00,86.3,64.9,29.85,West,260,11.0,18.0,49,0.00,,,0.00,696,Wunderground v.1.15,2013-10-02 12:22:00,
2013-10-02 14:28:00,86.2,65.4,29.85,WSW,244,12.0,18.0,50,0.00,,,0.00,686,Wunderground v.1.15,2013-10-02 12:28:00,
2013-10-02 14:36:00,86.4,65.0,29.84,WSW,241,12.0,13.0,49,0.00,,,0.00,677,Wunderground v.1.15,2013-10-02 12:36:00,
2013-10-02 14:42:00,86.3,64.9,29.84,WSW,252,12.0,13.0,49,0.00,,,0.00,670,Wunderground v.1.15,2013-10-02 12:42:00,
2013-10-02 14:48:00,86.6,64.6,29.84,WSW,248,12.0,13.0,48,0.00,,,0.00,664,Wunderground v.1.15,2013-10-02 12:48:00,
2013-10-02 14:56:00,86.5,64.5,29.84,WSW,248,11.0,11.0,48,0.00,,,0.00,657,Wunderground v.1.15,2013-10-02 12:56:00,
2013-10-02 15:02:00,86.9,65.4,29.84,WSW,242,11.0,11.0,49,0.00,,,0.00,643,Wunderground v.1.15,2013-10-02 13:02:00,
2013-10-02 15:08:00,86.8,65.3,29.84,WSW,239,10.0,11.0,49,0.00,,,0.00,640,Wunderground v.1.15,2013-10-02 13:08:00,
2013-10-02 15:16:00,87.1,64.4,29.84,WSW,251,10.0,10.0,47,0.00,,,0.00,628,Wunderground v.1.15,2013-10-02 13:16:00,
2013-10-02 15:22:00,87.5,64.2,29.83,WSW,252,9.0,9.0,46,0.00,,,0.00,617,Wunderground v.1.15,2013-10-02 13:22:00,
2013-10-02 15:28:00,87.4,64.1,29.84,WSW,248,10.0,12.0,46,0.00,,,0.00,608,Wunderground v.1.15,2013-10-02 13:28:00,
2013-10-02 15:36:00,87.3,64.0,29.83,WSW,240,11.0,11.0,46,0.00,,,0.00,592,Wunderground v.1.15,2013-10-02 13:36:00,
2013-10-02 15:42:00,87.2,64.5,29.83,WSW,254,10.0,12.0,47,0.00,,,0.00,580,Wunderground v.1.15,2013-10-02 13:42:00,
2013-10-02 15:48:00,87.2,65.1,29.83,SW,234,9.0,12.0,48,0.00,,,0.00,573,Wunderground v.1.15,2013-10-02 13:48:00,
2013-10-02 15:56:00,87.3,64.6,29.83,SW,225,9.0,11.0,47,0.00,,,0.00,552,Wunderground v.1.15,2013-10-02 13:56:00,
2013-10-02 16:02:00,87.4,64.1,29.83,WSW,250,9.0,10.0,46,0.00,,,0.00,540,Wunderground v.1.15,2013-10-02 14:02:00,
2013-10-02 16:08:00,87.0,63.1,29.83,WSW,242,11.0,11.0,45,0.00,,,0.00,527,Wunderground v.1.15,2013-10-02 14:08:00,
2013-10-02 16:16:00,87.3,64.0,29.83,WSW,251,10.0,11.0,46,0.00,,,0.00,508,Wunderground v.1.15,2013-10-02 14:16:00,
2013-10-02 16:22:00,87.4,64.1,29.83,WSW,238,8.0,9.0,46,0.00,,,0.00,496,Wunderground v.1.15,2013-10-02 14:22:00,
2013-10-02 16:28:00,87.3,64.0,29.83,WSW,244,9.0,11.0,46,0.00,,,0.00,482,Wunderground v.1.15,2013-10-02 14:28:00,
2013-10-02 16:36:00,87.0,64.3,29.83,SW,232,9.0,9.0,47,0.00,,,0.00,464,Wunderground v.1.15,2013-10-02 14:36:00,
2013-10-02 16:42:00,87.1,62.5,29.82,WNW,287,9.0,12.0,44,0.00,,,0.00,450,Wunderground v.1.15,2013-10-02 14:42:00,
2013-10-02 16:48:00,87.0,63.7,29.83,SW,234,9.0,12.0,46,0.00,,,0.00,438,Wunderground v.1.15,2013-10-02 14:48:00,
2013-10-02 16:54:00,86.8,64.2,29.82,WSW,249,9.0,12.0,47,0.00,,,0.00,415,Wunderground v.1.15,2013-10-02 14:54:00,
2013-10-02 17:00:00,87.1,63.8,29.82,SW,221,8.0,10.0,46,0.00,,,0.00,399,Wunderground v.1.15,2013-10-02 15:00:00,
2013-10-02 17:06:00,86.6,62.7,29.82,WSW,244,9.0,10.0,45,0.00,,,0.00,387,Wunderground v.1.15,2013-10-02 15:06:00,
2013-10-02 17:12:00,86.3,62.5,29.82,WSW,238,10.0,10.0,45,0.00,,,0.00,367,Wunderground v.1.15,2013-10-02 15:12:00,
2013-10-02 17:18:00,86.3,62.5,29.82,WSW,249,10.0,11.0,45,0.00,,,0.00,352,Wunderground v.1.15,2013-10-02 15:18:00,
2013-10-02 17:26:00,86.1,62.3,29.82,WSW,242,11.0,11.0,45,0.00,,,0.00,325,Wunderground v.1.15,2013-10-02 15:26:00,
2013-10-02 17:32:00,86.0,62.2,29.82,WSW,240,11.0,11.0,45,0.00,,,0.00,308,Wunderground v.1.15,2013-10-02 15:32:00,
2013-10-02 17:38:00,86.1,62.3,29.82,SW,231,11.0,11.0,45,0.00,,,0.00,290,Wunderground v.1.15,2013-10-02 15:38:00,
2013-10-02 17:46:00,86.1,62.9,29.82,WSW,252,9.0,10.0,46,0.00,,,0.00,267,Wunderground v.1.15,2013-10-02 15:46:00,
2013-10-02 17:52:00,85.9,63.3,29.82,SW,232,9.0,10.0,47,0.00,,,0.00,250,Wunderground v.1.15,2013-10-02 15:52:00,
2013-10-02 17:58:00,85.8,62.6,29.82,SW,221,9.0,10.0,46,0.00,,,0.00,232,Wunderground v.1.15,2013-10-02 15:58:00,
2013-10-02 18:06:00,85.6,61.8,29.82,WSW,240,9.0,10.0,45,0.00,,,0.00,207,Wunderground v.1.15,2013-10-02 16:06:00,
2013-10-02 18:12:00,85.4,62.3,29.82,SW,233,9.0,10.0,46,0.00,,,0.00,190,Wunderground v.1.15,2013-10-02 16:12:00,
2013-10-02 18:18:00,85.2,62.7,29.82,WSW,248,9.0,12.0,47,0.00,,,0.00,172,Wunderground v.1.15,2013-10-02 16:18:00,
2013-10-02 18:26:00,85.1,62.6,29.83,SW,227,8.0,9.0,47,0.00,,,0.00,144,Wunderground v.1.15,2013-10-02 16:26:00,
2013-10-02 18:32:00,85.0,62.5,29.83,WSW,248,7.0,8.0,47,0.00,,,0.00,123,Wunderground v.1.15,2013-10-02 16:32:00,
2013-10-02 18:38:00,84.8,62.3,29.83,WSW,244,7.0,9.0,47,0.00,,,0.00,104,Wunderground v.1.15,2013-10-02 16:38:00,
2013-10-02 18:46:00,84.5,62.1,29.83,WSW,242,7.0,9.0,47,0.00,,,0.00,79,Wunderground v.1.15,2013-10-02 16:46:00,
2013-10-02 18:52:00,84.3,62.5,29.83,WSW,241,6.0,7.0,48,0.00,,,0.00,58,Wunderground v.1.15,2013-10-02 16:52:00,
2013-10-02 18:58:00,84.1,62.9,29.83,WSW,242,5.0,7.0,49,0.00,,,0.00,42,Wunderground v.1.15,2013-10-02 16:58:00,
2013-10-02 19:06:00,83.5,62.3,29.83,WSW,247,5.0,6.0,49,0.00,,,0.00,26,Wunderground v.1.15,2013-10-02 17:06:00,
2013-10-02 19:12:00,83.0,62.4,29.84,WSW,241,6.0,6.0,50,0.00,,,0.00,16,Wunderground v.1.15,2013-10-02 17:12:00,
2013-10-02 19:18:00,82.7,62.7,29.83,WSW,242,5.0,6.0,51,0.00,,,0.00,9,Wunderground v.1.15,2013-10-02 17:18:00,
2013-10-02 19:24:00,82.3,62.9,29.84,WSW,242,5.0,6.0,52,0.00,,,0.00,5,Wunderground v.1.15,2013-10-02 17:24:00,
2013-10-02 19:30:00,82.0,63.2,29.84,WSW,244,4.0,4.0,53,0.00,,,0.00,0,Wunderground v.1.15,2013-10-02 17:30:00,
2013-10-02 19:36:00,81.5,63.3,29.84,WSW,248,3.0,5.0,54,0.00,,,0.00,0,Wunderground v.1.15,2013-10-02 17:36:00,
2013-10-02 19:42:00,81.0,63.3,29.84,WSW,249,3.0,4.0,55,0.00,,,0.00,0,Wunderground v.1.15,2013-10-02 17:42:00,
2013-10-02 19:48:00,80.5,63.4,29.84,WSW,250,3.0,5.0,56,0.00,,,0.00,0,Wunderground v.1.15,2013-10-02 17:48:00,
2013-10-02 19:54:00,80.0,63.4,29.84,WSW,254,4.0,5.0,57,0.00,,,0.00,0,Wunderground v.1.15,2013-10-02 17:54:00,
2013-10-02 20:00:00,79.7,63.6,29.85,WSW,257,4.0,5.0,58,0.00,,,0.00,0,Wunderground v.1.15,2013-10-02 18:00:00,
2013-10-02 20:06:00,79.6,63.5,29.85,WSW,257,3.0,5.0,58,0.00,,,0.00,0,Wunderground v.1.15,2013-10-02 18:06:00,
2013-10-02 20:12:00,79.3,63.7,29.85,WSW,257,4.0,4.0,59,0.00,,,0.00,0,Wunderground v.1.15,2013-10-02 18:12:00,
2013-10-02 20:18:00,78.8,63.7,29.85,WSW,257,4.0,6.0,60,0.00,,,0.00,0,Wunderground v.1.15,2013-10-02 18:18:00,
2013-10-02 20:26:00,78.2,63.6,29.85,WSW,255,4.0,5.0,61,0.00,,,0.00,0,Wunderground v.1.15,2013-10-02 18:26:00,
2013-10-02 20:32:00,78.0,63.9,29.86,WSW,254,4.0,4.0,62,0.00,,,0.00,0,Wunderground v.1.15,2013-10-02 18:32:00,
2013-10-02 20:38:00,77.8,63.7,29.86,WSW,254,4.0,6.0,62,0.00,,,0.00,0,Wunderground v.1.15,2013-10-02 18:38:00,
2013-10-02 20:44:00,77.4,63.8,29.86,WSW,253,4.0,5.0,63,0.00,,,0.00,0,Wunderground v.1.15,2013-10-02 18:44:00,
2013-10-02 20:50:00,77.2,64.1,29.86,WSW,249,2.0,3.0,64,0.00,,,0.00,0,Wunderground v.1.15,2013-10-02 18:50:00,
2013-10-02 20:56:00,77.0,64.3,29.86,SW,230,4.0,5.0,65,0.00,,,0.00,0,Wunderground v.1.15,2013-10-02 18:56:00,
2013-10-02 21:02:00,76.6,64.8,29.86,SW,229,6.0,6.0,67,0.00,,,0.00,0,Wunderground v.1.15,2013-10-02 19:02:00,
2013-10-02 21:08:00,76.2,65.3,29.86,WSW,241,6.0,7.0,69,0.00,,,0.00,0,Wunderground v.1.15,2013-10-02 19:08:00,
2013-10-02 21:16:00,75.9,65.8,29.87,WSW,242,6.0,6.0,71,0.00,,,0.00,0,Wunderground v.1.15,2013-10-02 19:16:00,
2013-10-02 21:22:00,75.8,66.1,29.87,WSW,244,6.0,6.0,72,0.00,,,0.00,0,Wunderground v.1.15,2013-10-02 19:22:00,
2013-10-02 21:28:00,75.7,66.4,29.87,WSW,245,6.0,7.0,73,0.00,,,0.00,0,Wunderground v.1.15,2013-10-02 19:28:00,
2013-10-02 21:36:00,75.4,66.9,29.88,WSW,246,6.0,6.0,75,0.00,,,0.00,0,Wunderground v.1.15,2013-10-02 19:36:00,
2013-10-02 21:42:00,75.3,67.6,29.88,WSW,245,5.0,5.0,77,0.00,,,0.00,0,Wunderground v.1.15,2013-10-02 19:42:00,
2013-10-02 21:48:00,75.2,67.9,29.88,WSW,245,4.0,5.0,78,0.00,,,0.00,0,Wunderground v.1.15,2013-10-02 19:48:00,
2013-10-02 21:56:00,74.8,67.8,29.88,WSW,245,3.0,4.0,79,0.00,,,0.00,0,Wunderground v.1.15,2013-10-02 19:56:00,
2013-10-02 22:02:00,74.8,68.9,29.88,WSW,244,4.0,4.0,82,0.00,,,0.00,0,Wunderground v.1.15,2013-10-02 20:02:00,
2013-10-02 22:08:00,74.9,69.4,29.88,WSW,244,5.0,5.0,83,0.00,,,0.00,0,Wunderground v.1.15,2013-10-02 20:08:00,
2013-10-02 22:16:00,74.7,69.5,29.89,WSW,244,4.0,5.0,84,0.00,,,0.00,0,Wunderground v.1.15,2013-10-02 20:16:00,
2013-10-02 22:22:00,74.4,69.2,29.89,WSW,244,3.0,4.0,84,0.00,,,0.00,0,Wunderground v.1.15,2013-10-02 20:22:00,
2013-10-02 22:28:00,74.3,69.1,29.89,WSW,244,3.0,6.0,84,0.00,,,0.00,0,Wunderground v.1.15,2013-10-02 20:28:00,
2013-10-02 22:36:00,74.3,69.5,29.89,WSW,244,3.0,3.0,85,0.00,,,0.00,0,Wunderground v.1.15,2013-10-02 20:36:00,
2013-10-02 22:42:00,74.1,69.3,29.89,WSW,244,4.0,6.0,85,0.00,,,0.00,0,Wunderground v.1.15,2013-10-02 20:42:00,
2013-10-02 22:48:00,74.0,69.5,29.89,WSW,244,4.0,6.0,86,0.00,,,0.00,0,Wunderground v.1.15,2013-10-02 20:48:00,
2013-10-02 22:56:00,73.9,69.4,29.90,WSW,244,4.0,5.0,86,0.00,,,0.00,0,Wunderground v.1.15,2013-10-02 20:56:00,
2013-10-02 23:02:00,73.7,69.2,29.90,WSW,244,2.0,3.0,86,0.00,,,0.00,0,Wunderground v.1.15,2013-10-02 21:02:00,
2013-10-02 23:08:00,73.5,69.1,29.90,WSW,244,2.0,3.0,86,0.00,,,0.00,0,Wunderground v.1.15,2013-10-02 21:08:00,
2013-10-02 23:16:00,73.4,69.3,29.89,WSW,244,1.0,2.0,87,0.00,,,0.00,0,Wunderground v.1.15,2013-10-02 21:16:00,
2013-10-02 23:22:00,73.3,69.2,29.90,WSW,244,1.0,4.0,87,0.00,,,0.00,0,Wunderground v.1.15,2013-10-02 21:22:00,
2013-10-02 23:28:00,73.3,69.2,29.90,WSW,244,1.0,4.0,87,0.00,,,0.00,0,Wunderground v.1.15,2013-10-02 21:28:00,
2013-10-02 23:34:00,73.4,69.6,29.90,WSW,244,2.0,4.0,88,0.00,,,0.00,0,Wunderground v.1.15,2013-10-02 21:34:00,
2013-10-02 23:40:00,73.3,69.5,29.90,WSW,244,1.0,2.0,88,0.00,,,0.00,0,Wunderground v.1.15,2013-10-02 21:40:00,
2013-10-02 23:46:00,73.1,69.0,29.90,WSW,244,2.0,2.0,87,0.00,,,0.00,0,Wunderground v.1.15,2013-10-02 21:46:00,
2013-10-02 23:52:00,72.9,68.8,29.90,WSW,244,2.0,2.0,87,0.00,,,0.00,0,Wunderground v.1.15,2013-10-02 21:52:00,
2013-10-02 23:58:00,72.8,69.0,29.90,WSW,244,1.0,2.0,88,0.00,,,0.00,0,Wunderground v.1.15,2013-10-02 21:58:00,